Weather History for Miami, FL

Change the Weather History Date:

Sunday, March 31, 2013

  Actual Average Record
Temperature  
Mean Temperature 72 °F 74 °F  
Max Temperature 80 °F 82 °F 91 °F (2000)
Min Temperature 63 °F 66 °F 44 °F (1950)
Degree Days  
Heating Degree Days 0 0  
Month to date heating degree days 34 8  
Since 1 July heating degree days 70 127  
Cooling Degree Days 7 9  
Month to date cooling degree days 133 247  
Year to date cooling degree days 612 569  
Growing Degree Days 22 (Base 50)    
Moisture  
Dew Point 61 °F    
Average Humidity 69    
Maximum Humidity 84    
Minimum Humidity 54    
Precipitation  
Precipitation 0.00 in 0.12 in 1.52 in (2012)
Month to date precipitation 0.81 3.00  
Year to date precipitation 3.20 6.87  
Snow  
Snow 0.00 in - - ()
Month to date snowfall 0.0  
Since 1 July snowfall 0.0  
Snow Depth 0.00 in    
Sea Level Pressure  
Sea Level Pressure 30.13 in    
Wind  
Wind Speed 9 mph (ESE)    
Max Wind Speed 20 mph    
Max Gust Speed 28 mph    
Visibility 10 miles    
Events      
T = Trace of Precipitation, MM = Missing Value Source: NWS Daily Summary

Daily Weather History Graph

Daily Weather History Graph

Search for Another Location

Airport:

Trip Planner

Search our weather history database for the weather conditions in past years. The results will help you decide how hot, cold, wet, or windy it might be!

Date:

Astronomy

Mar. 31, 2013 Rise Set
Actual Time 7:13 AM EDT 7:37 PM EDT
Civil Twilight 6:50 AM EDT 8:00 PM EDT
Nautical Twilight 6:23 AM EDT 8:27 PM EDT
Astronomical Twilight 5:55 AM EDT 8:55 PM EDT
Moon No Moon Rise 10:24 AM EDT (3/31)
Length of Visible Light 13h 10m
Length of Day
12h 24m
Waning Gibbous, 78% of the Moon is Illuminated
Mar 31
Waning Gibbous
Apr 3
Last Quarter
Apr 10
New
Apr 18
First Quarter
Apr 25
Full

Hourly Weather History & Observations

Time (EDT) Temp. Dew Point Humidity Pressure Visibility Wind Dir Wind Speed Gust Speed Precip Events Conditions
12:53 AM 68.0 °F 55.0 °F 63% 30.20 in 10.0 mi East 6.9 mph - N/A   Partly Cloudy
1:53 AM 66.9 °F 55.0 °F 66% 30.19 in 10.0 mi East 8.1 mph - N/A   Partly Cloudy
2:53 AM 66.9 °F 55.0 °F 66% 30.17 in 10.0 mi East 6.9 mph - N/A   Partly Cloudy
3:53 AM 66.9 °F 55.0 °F 66% 30.15 in 10.0 mi East 3.5 mph - N/A   Scattered Clouds
4:53 AM 66.9 °F 55.9 °F 68% 30.15 in 10.0 mi East 3.5 mph - N/A   Mostly Cloudy
5:53 AM 66.9 °F 57.0 °F 70% 30.14 in 10.0 mi ESE 5.8 mph - N/A   Mostly Cloudy
6:53 AM 66.0 °F 57.0 °F 73% 30.16 in 10.0 mi Calm Calm - N/A   Scattered Clouds
7:53 AM 68.0 °F 61.0 °F 78% 30.15 in 10.0 mi ESE 8.1 mph - N/A   Scattered Clouds
8:53 AM 73.9 °F 62.1 °F 66% 30.16 in 10.0 mi SE 6.9 mph - N/A   Scattered Clouds
9:53 AM 75.9 °F 63.0 °F 64% 30.17 in 10.0 mi SE 9.2 mph 17.3 mph N/A   Scattered Clouds
10:53 AM 78.1 °F 63.0 °F 60% 30.17 in 10.0 mi SE 17.3 mph 23.0 mph N/A   Mostly Cloudy
11:53 AM 78.1 °F 60.1 °F 54% 30.17 in 10.0 mi ESE 17.3 mph 23.0 mph N/A   Mostly Cloudy
12:53 PM 78.1 °F 61.0 °F 56% 30.14 in 10.0 mi SE 16.1 mph 24.2 mph N/A   Scattered Clouds
1:53 PM 79.0 °F 63.0 °F 58% 30.13 in 10.0 mi SE 15.0 mph 24.2 mph N/A   Mostly Cloudy
2:53 PM 78.1 °F 63.0 °F 60% 30.12 in 10.0 mi ESE 13.8 mph 20.7 mph N/A   Mostly Cloudy
3:53 PM 79.0 °F 64.0 °F 60% 30.10 in 10.0 mi ESE 13.8 mph - N/A   Mostly Cloudy
4:53 PM 78.1 °F 64.0 °F 62% 30.08 in 10.0 mi SE 13.8 mph - N/A   Mostly Cloudy
5:53 PM 77.0 °F 64.0 °F 64% 30.07 in 10.0 mi ESE 13.8 mph 21.9 mph N/A   Mostly Cloudy
6:53 PM 75.9 °F 64.0 °F 67% 30.07 in 10.0 mi SE 12.7 mph - N/A   Mostly Cloudy
7:53 PM 73.9 °F 64.0 °F 71% 30.07 in 10.0 mi SE 9.2 mph - N/A   Scattered Clouds
8:53 PM 73.0 °F 64.9 °F 76% 30.07 in 10.0 mi SE 5.8 mph - N/A   Clear
9:53 PM 72.0 °F 64.9 °F 78% 30.08 in 10.0 mi ESE 5.8 mph - N/A   Clear
10:53 PM 72.0 °F 66.0 °F 81% 30.08 in 10.0 mi SE 5.8 mph - N/A   Clear
11:53 PM 73.0 °F 66.0 °F 79% 30.08 in 10.0 mi SSE 8.1 mph - N/A   Clear